Tracking 28238 objects as of 28-Nov-2023
HD Live streaming from Space Station
objects crossing your sky now

ONEWEB-0468

Track ONEWEB-0468 now!
10-day predictions
ONEWEB-0468 is classified as:


NORAD ID: 51652
Int'l Code: 2022-012AG
Perigee: 1,227.7 km
Apogee: 1,230.0 km
Inclination: 87.9 °
Period: 109.9 minutes
Semi major axis: 7599 km
RCS: Unknown
Launch date: February 10, 2022
Source: United Kingdom (UK)
Launch site: FRENCH GUIANA (FRGUI)
Your satellite tracking list
Your tracking list is empty




NASA's NSSDC Master Catalog

Two Line Element Set (TLE):
1 51652U 22012AG  23332.24860360 -.00000075  00000-0 -25175-3 0  9995
2 51652  87.8927 221.3412 0001471  73.3938 286.7351 13.10370237 87254
Source of the keplerian elements: AFSPC